Date String (YYYY-MM-DD hh:mm:ss) UTC,Instrument flags,absolute air pressure of the measurement (hPa),sample flow rate (lpm),inlet stack bypass flow (lpm),air temperature of the measurement (°C),ambient temperature measured by the external sensor (°C),aerosol sample conditioner tube jacket temperature (°C),OPC LED temperature (°C),internal box temperature (°C),relative humidity of the measurement (%),span deviation,mass concentration of particles derived from Lorenz-Mie calculation of OPC scattering (μg/m³),mass concentration of particles derived from Lorenz-Mie calculation of OPC scattering (μg/m³),mass concentration of particles derived from Lorenz-Mie calculation of OPC scattering (μg/m³)
DateTimeUTC,F1_M11,P_M11,Q1_M11,Q2_M11,T1_M11,T2_M11,T3_M11,T4_M11,T5_M11,U1_M11,ZSPAN_M11,X0_M11,X2_M11,X1_M11
2024-06-05 14:00:00,SystemResetWarning,0828.1,5.01,000.00,030.0,028.3,000.0,038.7,031.4,014.4,0000.0,0006.12,0000.97,0000.43
2024-06-05 14:01:00,SystemResetWarning,0828.1,5.01,000.00,030.0,028.6,000.0,038.6,031.5,014.4,0000.0,0005.98,0000.94,0000.42
2024-06-05 14:02:00,SystemResetWarning,0828.0,5.00,000.00,030.0,028.8,000.0,038.6,031.6,014.1,0000.0,0005.95,0000.92,0000.41
2024-06-05 14:03:00,SystemResetWarning,0828.1,5.00,000.00,030.1,029.0,000.0,038.6,031.7,014.5,0000.0,0007.34,0000.93,0000.41
2024-06-05 14:04:00,SystemResetWarning,0828.0,4.99,000.00,030.1,029.1,000.0,038.5,031.8,014.2,0000.0,0007.55,0000.95,0000.41
2024-06-05 14:05:00,SystemResetWarning,0828.1,5.00,000.00,030.1,029.2,000.0,038.5,031.8,013.5,0000.0,0007.38,0000.95,0000.41
2024-06-05 14:06:00,SystemResetWarning,0828.1,4.99,000.00,030.2,029.3,000.0,038.5,031.8,014.0,0000.0,0007.77,0000.99,0000.41
2024-06-05 14:07:00,SystemResetWarning,0828.0,5.00,000.00,030.2,029.4,000.0,038.5,031.9,014.0,0000.0,0007.96,0000.96,0000.40
2024-06-05 14:08:00,SystemResetWarning,0828.1,5.01,000.00,030.3,029.5,000.0,038.5,031.9,014.3,0000.0,0007.44,0000.91,0000.39
2024-06-05 14:09:00,SystemResetWarning,0828.1,5.01,000.00,030.3,029.6,000.0,038.5,032.0,014.6,0000.0,0006.35,0000.87,0000.39
2024-06-05 14:10:00,SystemResetWarning,0828.1,5.00,000.00,030.3,029.6,000.0,038.5,032.0,014.4,0000.0,0005.92,0000.88,0000.38
2024-06-05 14:11:00,SystemResetWarning,0828.1,4.99,000.00,030.4,029.7,000.0,038.6,032.0,014.1,0000.0,0006.75,0000.88,0000.37
2024-06-05 14:12:00,SystemResetWarning,0828.0,4.99,000.00,030.4,029.7,000.0,038.6,032.1,013.8,0000.0,0006.88,0000.87,0000.37
2024-06-05 14:13:00,SystemResetWarning,0828.0,5.00,000.00,030.4,029.8,000.0,038.6,032.1,013.4,0000.0,0006.84,0000.87,0000.37
2024-06-05 14:14:00,SystemResetWarning,0828.0,5.00,000.00,030.5,029.8,000.0,038.6,032.2,013.7,0000.0,0005.44,0000.86,0000.37
2024-06-05 14:15:00,SystemResetWarning,0828.0,5.02,000.00,030.5,029.9,000.0,038.6,032.2,013.8,0000.0,0006.02,0000.90,0000.38
2024-06-05 14:16:00,SystemResetWarning,0828.0,5.00,000.00,030.5,029.9,000.0,038.7,032.2,013.7,0000.0,0007.41,0000.97,0000.38
2024-06-05 14:17:00,SystemResetWarning,0828.0,5.00,000.00,030.6,029.9,000.0,038.7,032.3,013.7,0000.0,0007.45,0000.99,0000.39
2024-06-05 14:18:00,SystemResetWarning,0827.9,4.99,000.00,030.6,030.0,000.0,038.7,032.3,013.8,0000.0,0006.42,0001.01,0000.38
2024-06-05 14:19:00,SystemResetWarning,0828.0,5.00,000.00,030.6,030.0,000.0,038.7,032.3,013.5,0000.0,0006.43,0001.00,0000.39
2024-06-05 14:20:00,SystemResetWarning,0828.0,5.00,000.00,030.6,030.0,000.0,038.8,032.4,013.8,0000.0,0006.45,0001.01,0000.40
2024-06-05 14:21:00,SystemResetWarning,0827.9,4.99,000.00,030.6,029.3,000.0,038.8,031.9,013.9,0000.0,0006.46,0001.02,0000.40
2024-06-05 14:22:00,SystemResetWarning,0827.7,5.00,000.00,030.2,027.1,000.0,038.9,030.8,014.3,0000.0,0007.04,0001.05,0000.42
2024-06-05 14:23:00,SystemResetWarning,0827.7,5.02,000.00,029.9,026.7,000.0,038.8,030.5,014.1,0000.0,0007.20,0001.07,0000.42
2024-06-05 14:24:00,SystemResetWarning,0827.8,4.99,000.00,029.8,027.1,000.0,038.7,030.8,014.2,0000.0,0007.70,0001.13,0000.44
2024-06-05 14:25:00,SystemResetWarning,0827.8,5.00,000.00,029.7,027.5,000.0,038.6,031.0,014.5,0000.0,0007.60,0001.12,0000.45
2024-06-05 14:26:00,SystemResetWarning,0827.8,5.01,000.00,029.8,027.8,000.0,038.5,031.2,014.6,0000.0,0007.33,0001.12,0000.46
2024-06-05 14:27:00,SystemResetWarning,0827.8,4.98,000.00,029.8,028.1,000.0,038.4,031.3,014.3,0000.0,0005.78,0001.01,0000.47
2024-06-05 14:28:00,SystemResetWarning,0827.8,4.99,000.00,029.8,028.4,000.0,038.4,031.4,014.2,0000.0,0005.96,0000.99,0000.47
2024-06-05 14:29:00,SystemResetWarning,0827.8,4.99,000.00,029.8,028.6,000.0,038.3,031.4,014.1,0000.0,0007.44,0001.01,0000.49
2024-06-05 14:30:00,SystemResetWarning,0828.0,5.00,000.00,029.9,028.8,000.0,038.3,031.5,014.1,0000.0,0007.47,0001.06,0000.50
2024-06-05 14:31:00,SystemResetWarning,0828.1,5.00,000.00,029.9,028.9,000.0,038.3,031.6,014.2,0000.0,0007.76,0001.15,0000.50
2024-06-05 14:32:00,SystemResetWarning,0828.0,5.00,000.00,030.0,029.1,000.0,038.3,031.7,014.2,0000.0,0009.21,0001.46,0000.53
2024-06-05 14:33:00,SystemResetWarning,0828.0,5.01,000.00,030.0,029.2,000.0,038.3,031.7,015.5,0000.0,0009.10,0001.53,0000.54
2024-06-05 14:34:00,SystemResetWarning,0828.1,5.00,000.00,030.0,029.3,000.0,038.3,031.7,016.9,0000.0,0009.21,0001.57,0000.54
2024-06-05 14:35:00,SystemResetWarning,0828.1,5.00,000.00,030.1,029.4,000.0,038.3,031.8,018.0,0000.0,0009.26,0001.68,0000.57
2024-06-05 14:36:00,SystemResetWarning,0828.1,5.00,000.00,030.1,029.4,000.0,038.3,031.8,018.5,0000.0,0010.03,0001.86,0000.61
2024-06-05 14:37:00,SystemResetWarning,0828.2,4.99,000.00,030.2,029.5,000.0,038.3,031.9,019.6,0000.0,0010.65,0002.06,0000.67
2024-06-05 14:38:00,SystemResetWarning,0828.2,5.00,000.00,030.2,029.6,000.0,038.4,031.9,020.3,0000.0,0011.91,0002.36,0000.74
2024-06-05 14:39:00,SystemResetWarning,0828.2,5.00,000.00,030.2,029.6,000.0,038.4,031.9,019.9,0000.0,0013.36,0002.58,0000.82
2024-06-05 14:40:00,SystemResetWarning,0828.3,5.00,000.00,030.3,029.7,000.0,038.4,032.0,020.2,0000.0,0013.61,0002.85,0000.89
2024-06-05 14:41:00,SystemResetWarning,0828.2,5.02,000.00,030.3,029.7,000.0,038.4,032.0,019.8,0000.0,0015.69,0003.14,0001.00
2024-06-05 14:42:00,SystemResetWarning,0828.3,5.01,000.00,030.4,029.8,000.0,038.5,032.1,016.6,0000.0,0016.77,0003.33,0001.11
2024-06-05 14:43:00,SystemResetWarning,0828.3,4.98,000.00,030.3,028.6,000.0,038.6,031.5,015.8,0000.0,0016.49,0003.27,0001.13
2024-06-05 14:44:00,SystemResetWarning,0828.2,5.00,000.00,029.8,026.5,000.0,038.6,030.4,017.3,0000.0,0016.73,0003.33,0001.15
2024-06-05 14:45:00,SystemResetWarning,0828.2,5.01,000.00,029.5,026.5,000.0,038.6,030.3,015.3,0000.0,0016.78,0003.35,0001.18
2024-06-05 14:46:00,SystemResetWarning,0828.2,4.99,000.00,029.5,026.9,000.0,038.4,030.5,014.7,0000.0,0016.26,0003.25,0001.15
2024-06-05 14:47:00,SystemResetWarning,0828.2,5.00,000.00,029.5,027.3,000.0,038.3,030.7,014.5,0000.0,0015.44,0003.13,0001.10
2024-06-05 14:48:00,SystemResetWarning,0828.4,5.00,000.00,029.5,027.7,000.0,038.2,030.9,019.4,0000.0,0014.76,0002.99,0001.05
2024-06-05 14:49:00,SystemResetWarning,0828.3,5.01,000.00,029.5,028.0,000.0,038.1,031.0,020.5,0000.0,0013.74,0002.92,0001.04
2024-06-05 14:50:00,SystemResetWarning,0828.4,5.00,000.00,029.6,028.3,000.0,038.1,031.1,021.1,0000.0,0012.46,0002.94,0001.03
2024-06-05 14:51:00,SystemResetWarning,0828.4,4.99,000.00,029.6,028.5,000.0,038.1,031.2,021.7,0000.0,0012.00,0003.03,0001.04
2024-06-05 14:52:00,SystemResetWarning,0828.3,5.00,000.00,029.7,028.7,000.0,038.1,031.3,022.3,0000.0,0011.43,0003.06,0001.04
2024-06-05 14:53:00,SystemResetWarning,0828.4,5.01,000.00,029.7,028.9,000.0,038.1,031.4,023.3,0000.0,0012.54,0003.09,0001.04
2024-06-05 14:54:00,SystemResetWarning,0828.4,5.00,000.00,029.8,029.0,000.0,038.1,031.5,023.0,0000.0,0013.08,0003.23,0001.13
2024-06-05 14:55:00,SystemResetWarning,0828.4,5.00,000.00,029.8,029.1,000.0,038.1,031.5,022.7,0000.0,0013.38,0003.38,0001.22
2024-06-05 14:56:00,SystemResetWarning,0828.4,5.00,000.00,029.9,029.2,000.0,038.1,031.6,023.0,0000.0,0015.59,0003.61,0001.33
2024-06-05 14:57:00,SystemResetWarning,0828.4,5.00,000.00,029.9,029.3,000.0,038.1,031.6,023.6,0000.0,0019.40,0003.88,0001.47
2024-06-05 14:58:00,SystemResetWarning,0828.4,5.00,000.00,030.0,029.4,000.0,038.1,031.7,023.2,0000.0,0021.27,0004.16,0001.62
2024-06-05 14:59:00,SystemResetWarning,0828.4,5.00,000.00,030.0,029.5,000.0,038.2,031.7,022.1,0000.0,0023.19,0004.39,0001.74
